This demonstration page uses our WeatherBlox Daily Observations layout. Learn more.

Left ArrowRight Arrow

Hourly Observations for October 3, 2022

Temp ( °F °C ) Dew Point ( °F °C ) Humidity (%) Winds ( mph kmh ) Pressure ( in mb ) Visibility ( mi km ) Precip ( " mm )
12:53 am 00:53 Clear 64 17.8 44 6.7 48 48 SE 7 11 30.05 1018 10 16 0.00 0.00
1:53 am 01:53 Clear 61 16.1 44 6.7 54 54 E 6 9 30.05 1018 10 16 0.00 0.00
2:53 am 02:53 Clear 59 15 44 6.7 58 58 E 6 9 30.04 1017 10 16 0.00 0.00
3:53 am 03:53 Clear 57 13.9 44 6.7 62 62 E 6 9 30.04 1017 10 16 0.00 0.00
4:53 am 04:53 Clear 57 13.9 45 7.2 64 64 E 7 11 30.03 1017 10 16 0.00 0.00
5:53 am 05:53 Clear 56 13.3 46 7.8 69 69 ENE 7 11 30.04 1017 10 16 0.00 0.00
6:53 am 06:53 Clear 57 13.9 47 8.3 69 69 E 6 9 30.07 1018 10 16 0.00 0.00
7:53 am 07:53 Sunny 57 13.9 47 8.3 69 69 E 6 9 30.09 1019 10 16 0.00 0.00
8:53 am 08:53 Sunny 60 15.6 48 8.9 64 64 E 6 9 30.10 1019 10 16 0.00 0.00
9:53 am 09:53 Sunny 69 20.6 48 8.9 47 47 SE 13 20 30.10 1019 10 16 0.00 0.00
10:53 am 10:53 Sunny 70 21.1 49 9.4 47 47 SSE 14 22 30.11 1020 10 16 0.00 0.00
11:53 am 11:53 Sunny 73 22.8 49 9.4 42 42 SSE 14 22 30.10 1019 10 16 0.00 0.00
12:53 pm 12:53 Sunny 77 25 48 8.9 36 36 ESE 12 19 30.07 1018 10 16 0.00 0.00
1:53 pm 13:53 Sunny 79 26.1 46 7.8 31 31 ESE 13 20 30.04 1017 10 16 0.00 0.00
2:53 pm 14:53 Sunny 81 27.2 45 7.2 28 28 SE 12 19 30.01 1016 10 16 0.00 0.00
3:30 pm 15:30 Sunny 82 27.8 44 6.7 26 26 SE 14 22 29.91 1013 10 16 0.00 0.00
3:53 pm 15:53 Sunny 82 27.8 44 6.7 26 26 SE 12 19 29.98 1015 10 16 0.00 0.00
4:53 pm 16:53 Sunny 82 27.8 41 5 23 23 E 10 17 29.97 1015 10 16 0.00 0.00
5:53 pm 17:53 Sunny 82 27.8 43 6.1 25 25 SE 14 22 29.96 1015 10 16 0.00 0.00
6:53 pm 18:53 Sunny 79 26.1 42 5.6 27 27 SSE 12 19 29.97 1015 10 16 0.00 0.00
7:53 pm 19:53 undefined 77 25 43 6.1 30 30 SE 9 15 29.97 1015 10 16 0.00 0.00
8:53 pm 20:53 Clear 75 23.9 44 6.7 33 33 ESE 7 11 29.98 1015 10 16 0.00 0.00
9:53 pm 21:53 undefined 74 23.3 48 8.9 40 40 SE 10 17 29.99 1016 10 16 0.00 0.00
10:53 pm 22:53 Clear 71 21.7 51 10.6 49 49 SE 10 17 30.00 1016 10 16 0.00 0.00
11:53 pm 23:53 Clear 70 21.1 52 11.1 53 53 SSE 12 19 30.00 1016 10 16 0.00 0.00

Powered by AerisWeather